GW5319 Weather Reports


time (UTC)temp
C
wind
direction
speed
KPH
gust
KPH
rain 1hr
cm
rain 24hr
cm
rain mn
cm
humidity
%
barometer
mb
20260906004613 18 0 0.0 0.0 0.00 0.00 0.00 72 1023.6
20260906003117 18 0 0.0 0.0 0.00 0.00 0.00 70 1023.4
20260906001603 19 0 0.0 0.0 0.00 0.00 0.00 69 1023.5
20260906000111 20 0 0.0 0.0 0.00 0.00 0.00 68 1023.5
20260905234615 20 0 0.0 0.0 0.00 0.00 0.00 67 1023.5
20260905233104 21 0 0.0 4.8 0.00 0.00 0.00 64 1023.5
20260905231559 21 0 0.0 4.8 0.00 0.00 0.00 64 1023.5
20260905230109 21 307 0.0 3.2 0.00 0.00 0.00 64 1023.3
20260905224608 21 0 0.0 1.6 0.00 0.00 0.00 64 1023.1
20260905223100 20 0 1.6 6.4 0.00 0.00 0.00 65 1023.1
20260905221615 20 0 0.0 1.6 0.00 0.00 0.00 69 1023.1
20260905220121 19 0 0.0 0.0 0.00 0.00 0.00 70 1023.0
20260905214600 19 0 0.0 0.0 0.00 0.00 0.00 70 1022.9
20260905213104 19 0 0.0 0.0 0.00 0.00 0.00 71 1022.7
20260905211609 19 0 0.0 0.0 0.00 0.00 0.00 70 1022.6
20260905210104 20 0 0.0 0.0 0.00 0.00 0.00 69 1022.4
20260905204600 20 0 0.0 0.0 0.00 0.00 0.00 67 1022.4
20260905203101 20 0 0.0 0.0 0.00 0.00 0.00 66 1022.2
20260905201603 20 0 0.0 0.0 0.00 0.00 0.00 65 1022.1
20260905194558 21 0 0.0 0.0 0.00 0.00 0.00 61 1021.6
20260905193104 21 0 0.0 0.0 0.00 0.00 0.00 61 1021.4
20260905191604 22 0 0.0 0.0 0.00 0.00 0.00 59 1021.2
20260905190113 22 0 0.0 0.0 0.00 0.00 0.00 58 1021.0
20260905184604 22 0 0.0 0.0 0.00 0.00 0.00 57 1020.8
20260905183125 22 0 0.0 0.0 0.00 0.00 0.00 56 1020.6
20260905181605 23 0 0.0 4.8 0.00 0.00 0.00 56 1020.4
20260905174555 23 337 0.0 8.0 0.00 0.00 0.00 54 1020.1
20260905173103 23 11 1.6 12.9 0.00 0.00 0.00 53 1019.9
20260905171605 24 343 3.2 20.9 0.00 0.00 0.00 52 1019.9
20260905164604 24 20 6.4 16.1 0.00 0.00 0.00 51 1019.5
20260905163055 25 24 8.0 19.3 0.00 0.00 0.00 50 1019.4
20260905161601 25 58 12.9 27.4 0.00 0.00 0.00 49 1019.4
20260905160122 26 350 9.7 16.1 0.00 0.00 0.00 47 1019.5
20260905154556 26 338 9.7 20.9 0.00 0.00 0.00 46 1019.4
20260905153112 26 8 9.7 20.9 0.00 0.00 0.00 45 1019.4
20260905151609 27 350 8.0 20.9 0.00 0.00 0.00 43 1019.3
20260905150057 27 0 11.3 20.9 0.00 0.00 0.00 42 1019.0
20260905144602 28 34 17.7 29.0 0.00 0.00 0.00 41 1019.0
20260905143100 28 8 8.0 22.5 0.00 0.00 0.00 43 1018.8
20260905141601 28 11 12.9 24.1 0.00 0.00 0.00 42 1018.8
20260905140108 28 314 8.0 24.1 0.00 0.00 0.00 41 1018.8
20260905134601 29 20 4.8 20.9 0.00 0.00 0.00 41 1018.8
20260905133107 29 342 11.3 22.5 0.00 0.00 0.00 41 1018.7
20260905131608 29 5 14.5 25.7 0.00 0.00 0.00 41 1018.6
20260905130110 29 333 9.7 24.1 0.00 0.00 0.00 41 1018.5
20260905124603 29 330 9.7 24.1 0.00 0.00 0.00 41 1018.7
20260905123058 28 337 14.5 29.0 0.00 0.00 0.00 40 1018.7
20260905121603 28 354 14.5 32.2 0.00 0.00 0.00 40 1018.8
20260905120113 28 19 16.1 27.4 0.00 0.00 0.00 41 1018.8
20260905114558 28 342 14.5 32.2 0.00 0.00 0.00 42 1018.9
20260905113056 28 29 12.9 33.8 0.00 0.00 0.00 43 1018.8
20260905111613 28 14 12.9 25.7 0.00 0.00 0.00 44 1018.7
20260905110101 27 20 19.3 35.4 0.00 0.00 0.00 44 1018.6
20260905104601 27 343 20.9 38.6 0.00 0.00 0.00 45 1018.6
20260905103102 28 3 19.3 48.3 0.00 0.00 0.00 44 1018.6
20260905101606 28 4 17.7 38.6 0.00 0.00 0.00 46 1018.1
20260905094558 31 1 14.5 33.8 0.00 0.00 0.00 47 1017.5
20260905093055 30 347 14.5 24.1 0.00 0.00 0.00 47 1017.2
20260905091606 30 11 9.7 22.5 0.00 0.00 0.00 47 1017.1
20260905090104 30 325 1.6 12.9 0.00 0.00 0.00 48 1017.0
20260905084618 29 314 6.4 16.1 0.00 0.00 0.00 49 1017.0
20260905083100 28 19 8.0 20.9 0.00 0.00 0.00 49 1016.9
20260905081559 28 338 4.8 14.5 0.00 0.00 0.00 50 1016.5
20260905074605 27 273 0.0 20.9 0.00 0.00 0.00 49 1016.5
20260905073103 27 309 9.7 19.3 0.00 0.00 0.00 49 1016.5
20260905071600 27 330 4.8 12.9 0.00 0.00 0.00 49 1016.4
20260905070105 26 322 4.8 17.7 0.00 0.00 0.00 50 1015.9
20260905064559 24 328 3.2 8.0 0.00 0.00 0.00 57 1016.2
20260905063058 23 0 1.6 4.8 0.00 0.00 0.00 60 1016.3
20260905061606 22 0 0.0 1.6 0.00 0.00 0.00 66 1016.2
20260905060100 21 351 0.0 0.0 0.00 0.00 0.00 68 1016.0
20260905054603 20 0 0.0 0.0 0.00 0.00 0.00 71 1016.1
20260905053142 18 0 0.0 4.8 0.00 0.00 0.00 73 1016.0
20260905051607 18 0 0.0 1.6 0.00 0.00 0.00 71 1016.0
20260905050106 18 0 0.0 0.0 0.00 0.00 0.00 74 1015.7
20260905044603 17 0 0.0 0.0 0.00 0.00 0.00 76 1015.5
20260905043103 16 0 0.0 0.0 0.00 0.00 0.00 76 1015.5
20260905041559 16 0 0.0 0.0 0.00 0.00 0.00 76 1015.4
20260905040105 16 0 0.0 0.0 0.00 0.00 0.00 76 1015.3
20260905034602 15 167 0.0 0.0 0.00 0.00 0.00 82 1015.0
20260905033106 15 0 0.0 0.0 0.00 0.00 0.00 81 1015.0
20260905031603 15 0 0.0 0.0 0.00 0.00 0.00 80 1015.0
20260905024623 16 0 0.0 0.0 0.00 0.00 0.00 77 1015.3
20260905023124 17 0 0.0 0.0 0.00 0.00 0.00 75 1015.3
20260905021609 16 0 0.0 0.0 0.00 0.00 0.00 78 1015.3
20260905020111 16 0 0.0 0.0 0.00 0.00 0.00 78 1015.3
20260905014617 16 0 0.0 0.0 0.00 0.00 0.00 77 1015.2
20260905013112 16 0 0.0 0.0 0.00 0.00 0.00 76 1015.3
20260905011622 17 0 0.0 0.0 0.00 0.00 0.00 75 1015.2